METEOR 2-7

导读

METEOR 2-7是苏联解体后独立国家联合体(CIS)继承的第二代“流星”极轨气象卫星系列成员,于1981年5月14日08:00发射升空。该系列卫星运行于约900公里高度的近极轨道,搭载可见光红外相机、多通道扫描辐射计及空间环境探测器,可获取全球云图、大气温湿分布与近地空间辐射数据,为气象预报与气候研究提供长期观测支撑,是苏联气象卫星体系中承前启后的业务卫星,推动了极轨气象观测网络的完善。

Basic Information
目录编号:
12456
目录名称:
METEOR 2-7
国际标识:
1981-043A
轨道中心:
EARTH
卫星名称:
METEOR 2-7
卫星全名:
--
卫星状态:
在轨 (已飞行16556 天)
发射日期:
1981-05-14 UTC
国别 :
俄罗斯(独联体) (CIS)
星等 :
--
This satellite is enrolled in the Space Conjunction Data Service (SCDS) and the current flight risk assessment level is: No High Risk
Orbit Information
数据来源 国际轨道数据 AOE轨道数据
星历时间 2026-09-11T14:41:58+0800
7小时前
查看轨道信息
2026-09-06T06:00:00+0800
5天前
查看轨道信息
半长轴 7233.855km 7233.858km
偏心率 0.004622 0.0045943
轨道倾角 81.269° 81.268°
近地点辐角 245.774° 260.938°
升交点赤经 15.336° 20.551°
平近点角 113.859° 233.348°
近地点 822.283km 822.486km
远地点 889.153km 888.956km
周期 102.050分钟 102.050分钟
每日圈数 14.110686 14.110677
Detailed Information
使用方式:
暂无
2D Orbit Map
3D Orbit Map
Orbit Altitude Analysis Chart
Orbit Inclination Analysis Chart
Orbit Comprehensive Analysis Chart
View Comprehensive Chart
Conjunction Data List
Event ID Objects TCA Miss Dist (km) Collision Risk Probability Collision Risk Index (CRI) Action
CDM_260913-073701-245606-581523
OBJECT A (65815)
2026-09-13T
07:37:12+0000
0.189 km
中距离
8.356152E-4 高风险 0.93
CDM_260913-092001-245605-665723
2026-09-13T
09:20:20+0000
1.462 km
极远距离
7.339039E-6 低风险 0.52
CDM_260912-194101-245603-702821
2026-09-12T
19:41:52+0000
2.255 km
极远距离
2.151502E-6 低风险 0.42
CDM_260911-231901-245605-948129
WSF-M (59481)
2026-09-11T
23:19:10+0000
2.306 km
极远距离
1.849577E-6 低风险 0.4
CDM_260906-020201-245603-295827
2026-09-06T
02:02:30+0000
2.452 km
极远距离
1.819459E-6 低风险 0.4
Miss Distance Evolution Trend with All Objects
Collision Probability Evolution Trend with All Objects